Location: Unspecified
(0.0000°N, 0.0000°E)
Time: 01:41:46
(UTC+02:00)

Cosmos 1072 Rocket - Visible Passes

Search period start: 17 August 2017 00:00
Search period end: 27 August 2017 00:00
Orbit: 949 x 1008 km, 82.9° (Epoch: 15 August)

Date Brightness Start Highest point End Pass type
(mag) Time Alt. Az. Time Alt. Az. Time Alt. Az.
17 Aug 7.1 05:58:10 10° SE 06:02:13 18° E 06:06:15 10° NE visible
18 Aug 5.8 06:22:36 10° SSE 06:28:28 40° E 06:34:22 10° NNE visible
19 Aug 4.6 06:48:23 10° S 06:54:45 87° E 07:01:09 10° N visible
20 Aug 7.2 05:32:25 10° SE 05:35:55 15° E 05:39:24 10° ENE visible
20 Aug 4.9 07:15:04 10° SSW 07:21:02 43° W 07:27:00 10° NNW visible
21 Aug 6.0 05:56:29 10° SSE 06:02:11 35° E 06:07:53 10° NNE visible
22 Aug 4.6 06:22:05 10° S 06:28:27 77° E 06:34:51 10° N visible
23 Aug 7.2 05:06:53 10° ESE 05:09:37 13° E 05:12:20 10° ENE visible
23 Aug 4.7 06:48:37 10° SSW 06:54:44 49° W 07:00:52 10° NNW visible
24 Aug 6.2 05:30:24 10° SSE 05:35:53 30° E 05:41:22 10° NNE visible
24 Aug 5.6 07:16:16 10° SW 07:21:01 22° W 07:25:46 10° NW visible
25 Aug 4.8 05:57:43 21° S 06:02:09 68° E 06:08:30 10° N visible
26 Aug 7.3 04:41:47 10° ESE 04:43:19 11° E 04:44:49 10° E visible
26 Aug 4.5 06:25:58 36° SW 06:28:26 56° W 06:34:41 10° N visible
